NIMBUS 2 DEB, 28612

Orbit data source: Space-Track

NIMBUS 2 DEB, 28612 is space debris in SSO originally from a launch on Sun, 15 May 1966 UTC launched from the Air Force Western Test Range (AFWTR). Debris objects in space refer to the collection of defunct objects orbiting the Earth. Examples of debris include non-operational satellites, rocket bodies, and fragments generated from explosions, collisions, or faulty payload assembly.

Loading next visibility...
Identifier
28612, 1966-040AB
Orbit
SSO
Last TLE update
4 days ago
Origin
Manufacturer
Unknown
Mission
Spacecraft
Bus & Motor
Unknown
Mass
Unknown
Launch date (UTC)
1966-05-15 (59 years ago)
Launch vehicle
Unknown
Launch site
Air Force Western Test Range (AFWTR)
Object type
Payload
Rocket body
Debris
Shape & HBR
Unknown
Radar Cross Section
Small (<0.1 m²)

Expand to show TLE details & history

TLE from 4 days ago
0 NIMBUS 2 DEB
1 28612U 66040AB  25125.36003758  .00003764  00000-0  39558-2 0  9994
2 28612 100.3933 328.8976 0042593 356.6162 183.0434 13.75203185644209
Epoch: 2025-05-05T08:38Z
Definitive object data (Epoch: 2025-05-05T08:38:27.246Z)
Latitude
0.24929°
Longitude
155.85485°
Altitude
1,015.02 km
Speed
7.329 km/s
True Right ascension
09h 55m 46s
True Declination
0° 14' 52"
Sunlit
Object was in daylight at TLE epoch
Visualization TLE readout
Latitude
-69.89208°
Longitude
130.12705°
Altitude
1,009.092 km
Speed
7.345 km/s
Apparent Right ascension
03h 37m 03s
Apparent Declination
-64° 40' 35"
Sunlit
Object is in daylight
Visualization observer readout
Local Sidereal Time
13:40:59
Azimuth
204.595° SW
Elevation
-60.099°
Doppler factor
1
Orbital elements
Apogee altitude
1,009.588 km
Perigee altitude
946.922 km
Semi-major axis
7,356.392 km
Eccentricity
0.0042593
Inclination
100.3933°
RAAN
328.8976°
Arg. of periapsis
356.6162°
True anomaly
183.01762°
Mean anomaly
183.0434°
Eccentric anomaly
183.0305°
Mean motion
3.4399 °/min
BSTAR
0.0039558
Orbital period
104.65 mins
Loading maneuver chart data...
Loading SW <> Apogee altitude chart data...
Loading historical data...
Loading historical data...
Loading historical data...
Loading historical data...
Loading historical data...
Loading historical data...
Loading historical data...

NIMBUS 2 DEB Visibility forecast

Observer location: undefined°, undefined°

Span
Click to sort rows by Start time (UTC) header in descending order
Start Az.
Max El. time (UTC)
Max El. Az.
Max El.
End time (UTC)
End Az.
10 mins2025-05-09 13:10:18.200Z150.488° SSE2025-05-09 13:14:18.200Z83.042° E43.244°2025-05-09 13:20:18.200Z349.189° N
5 mins2025-05-09 14:56:18.200Z246.159° WSW2025-05-09 14:58:18.200Z269.238° W15.924°2025-05-09 15:01:18.200Z301.197° NW
10 mins2025-05-10 01:52:18.200Z35.785° NE2025-05-10 01:57:18.200Z111.094° ESE33.632°2025-05-10 02:02:18.200Z168.47° S
8 mins2025-05-10 03:36:18.200Z344.698° N2025-05-10 03:40:18.200Z287.71° WNW27.529°2025-05-10 03:44:18.200Z241.497° WSW
|